1513947601.02,32169,7.5,73296.3,-10.67,-11.45,-11.37,0,*6A
1513947602.26,32170,7.5,73300.0,-10.69,-11.41,-11.37,0,*68
1513947603.53,32171,7.5,73294.5,-10.67,-11.45,-11.33,0,*67
1513947604.81,32172,7.5,73284.0,-10.67,-11.37,-11.37,0,*65
1513947606.08,32173,7.5,73262.3,-10.67,-11.45,-11.37,0,*61
1513947607.35,32174,7.44,73282.5,-10.67,-11.45,-11.51,0,*66
1513947608.62,32175,7.5,73282.0,-10.67,-11.45,-11.51,0,*67
1513947609.85,32176,7.5,73278.5,-10.69,-11.45,-11.45,0,*6F
1513947611.11,32177,7.5,73274.5,-10.69,-11.51,-11.51,0,*6E
1513947612.38,32178,7.5,73260.8,-10.67,-11.45,-11.51,0,*6A
1513947613.65,32179,7.5,73274.0,-10.67,-11.45,-11.51,0,*6B
1513947614.92,32180,7.5,73282.3,-10.67,-11.51,-11.45,0,*6D
1513947616.2,32181,7.5,73292.8,-10.67,-11.51,-11.51,0,*69
1513947617.47,32182,7.5,73322.8,-10.67,-11.45,-11.51,0,*6F
1513947618.76,32183,7.5,73302.5,-10.67,-11.51,-11.51,0,*6B
1513947620.03,32184,7.5,73322.5,-10.67,-11.51,-11.45,0,*69
1513947621.29,32185,7.5,73324.3,-10.69,-11.51,-11.55,0,*67
1513947622.58,32186,7.5,73334.5,-10.67,-11.51,-11.51,0,*6E
1513947623.85,32187,7.5,73350.8,-10.67,-11.45,-11.51,0,*6A
1513947625.12,32188,7.5,73348.5,-10.67,-11.45,-11.51,0,*65
1513947626.41,32189,7.5,73348.3,-10.67,-11.51,-11.51,0,*61
1513947627.7,32190,7.5,73340.5,-10.67,-11.51,-11.51,0,*69
1513947628.94,32191,7.5,73336.0,-10.67,-11.45,-11.45,0,*68
1513947630.23,32192,7.5,73350.0,-10.67,-11.51,-11.51,0,*6B
1513947631.52,32193,7.5,73342.0,-10.67,-11.51,-11.51,0,*6A
1513947632.79,32194,7.5,73300.3,-10.69,-11.55,-11.55,0,*63
1513947634.05,32195,7.5,73274.3,-10.69,-11.55,-11.55,0,*62
1513947635.34,32196,7.5,73266.5,-10.67,-11.51,-11.51,0,*6F
1513947636.63,32197,7.5,73276.0,-10.67,-11.51,-11.51,0,*6E
1513947637.9,32198,7.5,73280.0,-10.69,-11.55,-11.55,0,*6F
1513947639.19,32199,7.5,73284.3,-10.67,-11.51,-11.51,0,*60
1513947640.45,32200,7.5,73296.5,-10.67,-11.51,-11.45,0,*66
1513947641.72,32201,7.5,73290.5,-10.69,-11.55,-11.55,0,*6C
1513947642.98,32202,7.5,73290.8,-10.69,-11.55,-11.51,0,*6B
1513947644.23,32203,7.5,73292.0,-10.67,-11.45,-11.45,0,*60
1513947645.48,32204,7.5,73284.5,-10.67,-11.45,-11.45,0,*67
1513947646.74,32205,7.5,73304.3,-10.67,-11.51,-11.45,0,*63
1513947647.99,32206,7.5,73318.5,-10.69,-11.45,-11.51,0,*6E
1513947649.25,32207,7.5,73340.8,-10.67,-11.51,-11.45,0,*61
1513947650.5,32208,7.5,73344.3,-10.67,-11.45,-11.45,0,*6B
1513947651.75,32209,7.5,73336.3,-10.67,-11.45,-11.45,0,*6A
1513947653.0,32210,7.5,73344.5,-10.67,-11.45,-11.45,0,*62
1513947654.24,32211,7.5,73348.5,-10.69,-11.51,-11.41,0,*6C
1513947655.5,32212,7.5,73324.8,-10.67,-11.51,-11.45,0,*65
1513947656.76,32213,7.5,73326.3,-10.69,-11.51,-11.51,0,*6F
1513947658.03,32214,7.5,73338.8,-10.69,-11.37,-11.37,0,*68
1513947659.29,32215,7.5,73330.8,-10.69,-11.51,-11.51,0,*69
1513947660.55,32216,7.5,73330.8,-10.69,-11.51,-11.51,0,*6A
1513947661.81,32217,7.5,73340.5,-10.69,-11.51,-11.51,0,*6B
1513947663.07,32218,7.5,73334.5,-10.69,-11.51,-11.51,0,*64
1513947664.34,32219,7.5,73340.0,-10.67,-11.51,-11.45,0,*6E
1513947665.61,32220,7.5,73350.3,-10.67,-11.45,-11.37,0,*64
1513947666.85,32221,7.5,73358.3,-10.69,-11.41,-11.51,0,*6F
1513947668.1,32222,7.5,73346.0,-10.67,-11.45,-11.45,0,*63
1513947669.36,32223,7.5,73346.3,-10.67,-11.51,-11.45,0,*67
1513947670.63,32224,7.5,73332.8,-10.69,-11.55,-11.51,0,*6F
1513947671.87,32225,7.5,73320.3,-10.67,-11.45,-11.45,0,*64
1513947673.12,32226,7.5,73312.5,-10.69,-11.51,-11.41,0,*68
1513947674.38,32227,7.5,73306.0,-10.69,-11.51,-11.51,0,*68
1513947675.64,32228,7.5,73296.5,-10.69,-11.51,-11.51,0,*67
1513947676.88,32229,7.5,73292.3,-10.69,-11.51,-11.41,0,*67
1513947678.12,32230,7.5,73318.0,-10.69,-11.51,-11.41,0,*6F
1513947679.34,32231,7.5,73310.5,-10.69,-11.41,-11.41,0,*6F
1513947680.62,32232,7.5,73318.5,-10.67,-11.37,-11.33,0,*66
1513947681.89,32233,7.5,73328.8,-10.69,-11.33,-11.37,0,*69
1513947683.17,32234,7.5,73332.0,-10.67,-11.33,-11.33,0,*64
1513947684.41,32235,7.5,73318.5,-10.69,-11.41,-11.37,0,*6A
1513947685.7,32236,7.5,73328.0,-10.67,-11.37,-11.33,0,*62
1513947686.96,32237,7.5,73338.8,-10.69,-11.37,-11.37,0,*69
1513947688.24,32238,7.5,73336.8,-10.67,-11.37,-11.33,0,*6C
1513947689.53,32239,7.5,73362.0,-10.67,-11.33,-11.37,0,*6D
1513947690.82,32240,7.5,73356.3,-10.67,-11.37,-11.37,0,*67
1513947692.06,32241,7.5,73368.5,-10.69,-11.37,-11.41,0,*69
1513947693.35,32242,7.5,73362.8,-10.67,-11.33,-11.33,0,*65
1513947694.64,32243,7.5,73366.5,-10.67,-11.33,-11.37,0,*60
1513947695.93,32244,7.5,73362.3,-10.67,-11.37,-11.37,0,*63
1513947697.19,32245,7.5,73358.3,-10.67,-11.37,-11.45,0,*67
1513947698.45,32246,7.5,73356.0,-10.69,-11.51,-11.51,0,*6F
1513947699.72,32247,7.5,73344.8,-10.69,-11.55,-11.55,0,*6E
1513947701.01,32248,7.5,73350.0,-10.67,-11.51,-11.51,0,*6F
1513947702.29,32249,7.5,73364.0,-10.67,-11.51,-11.51,0,*6E
1513947703.56,32250,7.5,73332.3,-10.69,-11.55,-11.55,0,*68
1513947704.83,32251,7.5,73332.5,-10.69,-11.55,-11.59,0,*65
1513947706.1,32252,7.5,73320.3,-10.69,-11.55,-11.67,0,*6B
1513947707.36,32253,7.5,73330.3,-10.69,-11.55,-11.59,0,*67
1513947708.66,32254,7.5,73328.3,-10.67,-11.55,-11.55,0,*62
1513947709.92,32255,7.5,73316.5,-10.69,-11.59,-11.59,0,*6D
1513947711.22,32256,7.5,73276.8,-10.67,-11.63,-11.55,0,*65
1513947712.48,32257,7.5,73292.3,-10.69,-11.73,-11.67,0,*6A
1513947713.75,32258,7.5,73290.5,-10.69,-11.67,-11.67,0,*60
1513947715.02,32259,7.5,73290.0,-10.69,-11.67,-11.59,0,*6C
1513947716.31,32260,7.5,73290.3,-10.71,-11.67,-11.67,0,*62
1513947717.6,32261,7.5,73282.3,-10.71,-11.67,-11.67,0,*63
1513947718.89,32262,7.5,73298.0,-10.71,-11.67,-11.59,0,*6D
1513947720.16,32263,7.5,73286.3,-10.73,-11.67,-11.73,0,*66
1513947721.45,32264,7.5,73306.0,-10.71,-11.59,-11.67,0,*6B
1513947722.75,32265,7.5,73312.8,-10.71,-11.59,-11.63,0,*6E
1513947724.02,32266,7.5,73316.5,-10.73,-11.63,-11.63,0,*66
1513947725.31,32267,7.5,73304.5,-10.71,-11.67,-11.73,0,*60
1513947726.58,32268,7.5,73174.5,-10.73,-11.73,-11.73,0,*68
1513947727.87,32269,7.5,73208.5,-10.71,-11.59,-11.67,0,*66
1513947729.16,32270,7.5,73182.8,-10.71,-11.59,-11.67,0,*6E
1513947730.43,32271,7.5,73148.8,-10.73,-11.73,-11.63,0,*61
1513947731.7,32272,7.5,73218.0,-10.73,-11.73,-11.63,0,*62
1513947732.96,32273,7.5,73212.5,-10.73,-11.73,-11.73,0,*62
1513947734.23,32274,7.5,73226.0,-10.73,-11.73,-11.63,0,*64
1513947735.51,32275,7.5,73264.5,-10.73,-11.63,-11.63,0,*64
1513947736.78,32276,7.5,73224.0,-10.73,-11.73,-11.63,0,*66
1513947738.05,32277,7.5,73260.8,-10.73,-11.73,-11.63,0,*67
1513947739.32,32278,7.5,73272.5,-10.73,-11.63,-11.73,0,*68
1513947740.6,32279,7.5,73280.5,-10.73,-11.63,-11.63,0,*68
1513947741.89,32280,7.5,73250.0,-10.71,-11.59,-11.67,0,*61
1513947743.17,32281,7.5,73252.5,-10.73,-11.63,-11.63,0,*6F
1513947744.44,32282,7.5,73268.5,-10.73,-11.73,-11.63,0,*6D
1513947745.71,32283,7.5,73268.8,-10.73,-11.63,-11.63,0,*6D
1513947746.98,32284,7.5,73294.3,-10.73,-11.73,-11.63,0,*6B
1513947748.25,32285,7.5,73322.5,-10.73,-11.73,-11.63,0,*6A
1513947749.54,32286,7.5,73316.5,-10.71,-11.59,-11.59,0,*6A
1513947750.84,32287,7.5,73306.5,-10.75,-11.63,-11.63,0,*6F
1513947752.14,32288,7.5,73310.8,-10.75,-11.63,-11.63,0,*60
1513947753.42,32289,7.5,73304.0,-10.73,-11.63,-11.63,0,*67
1513947754.69,32290,7.5,73308.0,-10.73,-11.59,-11.55,0,*63
1513947755.96,32291,7.5,73310.8,-10.73,-11.55,-11.59,0,*62
1513947757.25,32292,7.5,73308.8,-10.71,-11.55,-11.51,0,*6B
1513947758.54,32293,7.5,73304.3,-10.75,-11.59,-11.55,0,*66
1513947759.81,32294,7.5,73312.3,-10.73,-11.55,-11.55,0,*6B
1513947761.08,32295,7.5,73314.5,-10.73,-11.59,-11.55,0,*66
1513947762.33,32296,7.5,73312.3,-10.73,-11.59,-11.45,0,*64
1513947763.58,32297,7.5,73336.5,-10.73,-11.45,-11.55,0,*69
1513947764.83,32298,7.5,73336.8,-10.73,-11.45,-11.55,0,*66
1513947766.06,32299,7.5,73338.8,-10.73,-11.45,-11.45,0,*66
1513947767.28,32300,7.5,73326.8,-10.73,-11.45,-11.45,0,*67
1513947768.51,32301,7.5,73336.5,-10.73,-11.45,-11.45,0,*66
1513947769.74,32302,7.5,73312.3,-10.73,-11.45,-11.45,0,*65
1513947770.98,32303,7.5,73326.5,-10.73,-11.55,-11.45,0,*65
1513947772.25,32304,7.5,73330.8,-10.73,-11.51,-11.55,0,*67
1513947773.47,32305,7.5,73328.3,-10.73,-11.45,-11.45,0,*62
1513947774.72,32306,7.5,73338.5,-10.71,-11.41,-11.41,0,*63
1513947775.95,32307,7.5,73338.8,-10.73,-11.45,-11.41,0,*64
1513947777.21,32308,7.5,73336.8,-10.71,-11.37,-11.41,0,*6C
1513947778.44,32309,7.5,73338.0,-10.73,-11.45,-11.45,0,*6E
1513947779.7,32310,7.5,73328.3,-10.71,-11.41,-11.37,0,*65
1513947780.93,32311,7.5,73286.3,-10.73,-11.45,-11.45,0,*67
1513947782.15,32312,7.5,73344.5,-10.73,-11.45,-11.45,0,*64
1513947783.4,32313,7.5,73338.3,-10.71,-11.41,-11.41,0,*67
1513947784.65,32314,7.5,73334.8,-10.73,-11.45,-11.55,0,*63
1513947785.94,32315,7.5,73312.3,-10.75,-11.55,-11.55,0,*65
1513947787.17,32316,7.5,73312.3,-10.73,-11.45,-11.45,0,*60
1513947788.42,32317,7.5,73316.3,-10.73,-11.45,-11.55,0,*60
1513947789.69,32318,7.5,73322.3,-10.73,-11.55,-11.55,0,*6E
1513947790.96,32319,7.5,73324.3,-10.73,-11.59,-11.55,0,*63
1513947792.23,32320,7.5,73342.8,-10.73,-11.55,-11.59,0,*69
1513947793.52,32321,7.5,73358.3,-10.71,-11.51,-11.51,0,*66
1513947794.79,32322,7.5,73328.8,-10.73,-11.55,-11.55,0,*67
1513947796.06,32323,7.5,73308.8,-10.73,-11.55,-11.59,0,*6A
1513947797.33,32324,7.5,73322.8,-10.73,-11.59,-11.59,0,*61
1513947798.59,32325,7.5,73322.3,-10.73,-11.59,-11.59,0,*60
1513947799.86,32326,7.5,73332.0,-10.73,-11.59,-11.59,0,*63
1513947801.14,32327,7.5,73338.0,-10.73,-11.59,-11.63,0,*6B
1513947802.41,32328,7.5,73312.5,-10.73,-11.73,-11.63,0,*6C
1513947803.67,32329,7.5,73338.8,-10.73,-11.73,-11.73,0,*6C
1513947804.97,32330,7.5,73320.8,-10.75,-11.63,-11.73,0,*63
1513947806.26,32331,7.5,73314.5,-10.75,-11.73,-11.63,0,*62
1513947807.56,32332,7.5,73314.5,-10.75,-11.63,-11.63,0,*60
1513947808.85,32333,7.5,73338.3,-10.75,-11.73,-11.73,0,*61
1513947810.14,32334,7.5,73336.3,-10.75,-11.63,-11.73,0,*67
1513947811.43,32335,7.5,73302.3,-10.75,-11.73,-11.73,0,*67
1513947812.72,32336,7.5,73304.5,-10.75,-11.73,-11.73,0,*64
1513947814.01,32337,7.5,73314.8,-10.75,-11.73,-11.73,0,*65
1513947815.26,32338,7.5,73326.0,-10.77,-11.77,-11.77,0,*68
1513947816.52,32339,7.5,73336.3,-10.77,-11.77,-11.77,0,*69
1513947817.81,32340,7.5,73344.5,-10.75,-11.73,-11.73,0,*65
1513947819.07,32341,7.5,73336.5,-10.77,-11.77,-11.77,0,*66
1513947820.33,32342,7.5,73314.3,-10.77,-11.67,-11.77,0,*64
1513947821.58,32343,7.5,73320.5,-10.77,-11.67,-11.77,0,*65
1513947822.84,32344,7.5,73320.5,-10.77,-11.67,-11.77,0,*62
1513947824.1,32345,7.5,73320.0,-10.77,-11.77,-11.77,0,*62
1513947825.36,32346,7.5,73326.8,-10.77,-11.77,-11.67,0,*60
1513947826.63,32347,7.5,73328.5,-10.77,-11.77,-11.67,0,*61
1513947827.89,32348,7.5,73326.0,-10.77,-11.67,-11.67,0,*6F
1513947829.15,32349,7.5,73328.5,-10.77,-11.67,-11.67,0,*6E
1513947830.42,32350,7.5,73326.5,-10.77,-11.77,-11.67,0,*67
1513947831.68,32351,7.5,73314.5,-10.77,-11.67,-11.67,0,*67
1513947832.94,32352,7.5,73312.8,-10.77,-11.67,-11.67,0,*64
1513947834.21,32353,7.5,73318.8,-10.77,-11.63,-11.67,0,*61
1513947835.47,32354,7.5,73314.5,-10.77,-11.77,-11.67,0,*63
1513947836.76,32355,7.5,73302.0,-10.79,-11.67,-11.67,0,*6D
1513947838.03,32356,7.5,73290.5,-10.77,-11.63,-11.67,0,*64
1513947839.29,32357,7.5,73286.0,-10.77,-11.67,-11.67,0,*61
1513947840.56,32358,7.5,73290.3,-10.77,-11.67,-11.67,0,*6E
1513947841.82,32359,7.5,73278.5,-10.77,-11.67,-11.67,0,*6F
1513947843.08,32360,7.5,73254.0,-10.77,-11.67,-11.67,0,*65
1513947844.38,32361,7.5,73266.0,-10.79,-11.63,-11.67,0,*6E
1513947845.65,32362,7.5,73266.3,-10.81,-11.67,-11.73,0,*6B
1513947846.94,32363,7.5,73290.8,-10.79,-11.63,-11.67,0,*6C
1513947848.23,32364,7.5,73262.0,-10.79,-11.63,-11.67,0,*6B
1513947849.53,32365,7.5,73270.0,-10.79,-11.63,-11.67,0,*6A
1513947850.82,32366,7.5,73276.3,-10.79,-11.63,-11.67,0,*69
1513947852.12,32367,7.5,73292.3,-10.79,-11.63,-11.73,0,*6D
1513947853.41,32368,7.5,73244.3,-10.79,-11.63,-11.59,0,*6A
1513947854.71,32369,7.5,73246.3,-10.79,-11.63,-11.63,0,*62
1513947855.98,32370,7.5,73234.0,-10.81,-11.67,-11.67,0,*6D
1513947857.25,32371,7.5,73242.0,-10.81,-11.67,-11.67,0,*6C
1513947858.54,32372,7.5,73272.5,-10.79,-11.63,-11.59,0,*61
1513947859.84,32373,7.5,73266.0,-10.79,-11.59,-11.63,0,*60
1513947861.13,32374,7.5,73250.8,-10.79,-11.59,-11.51,0,*66
1513947862.42,32375,7.5,73262.3,-10.79,-11.59,-11.59,0,*6F
1513947863.68,32376,7.5,73268.0,-10.79,-11.59,-11.45,0,*61
1513947864.93,32377,7.5,73278.3,-10.79,-11.45,-11.45,0,*6D
1513947866.18,32378,7.5,73296.3,-10.79,-11.45,-11.45,0,*62
1513947867.45,32379,7.5,73306.5,-10.79,-11.45,-11.33,0,*62
1513947868.72,32380,7.5,73306.5,-10.79,-11.45,-11.37,0,*60
1513947869.98,32381,7.5,73308.0,-10.79,-11.45,-11.33,0,*65
1513947871.25,32382,7.5,73306.5,-10.79,-11.45,-11.37,0,*62
1513947872.54,32383,7.5,73298.0,-10.79,-11.33,-11.37,0,*62
1513947873.83,32384,7.5,73308.0,-10.75,-11.33,-11.37,0,*69
1513947875.12,32385,7.5,73314.0,-10.75,-11.33,-11.29,0,*67
1513947876.38,32386,7.5,73304.3,-10.77,-11.37,-11.37,0,*6D
1513947877.63,32387,7.5,73312.0,-10.77,-11.37,-11.33,0,*68
1513947878.89,32388,7.5,73316.3,-10.77,-11.37,-11.37,0,*63
1513947880.18,32389,7.5,73308.5,-10.75,-11.33,-11.33,0,*60
1513947881.43,32390,7.5,73298.8,-10.77,-11.37,-11.37,0,*6A
1513947882.7,32391,7.5,73310.0,-10.75,-11.45,-11.33,0,*68
1513947883.95,32392,7.5,73304.5,-10.75,-11.45,-11.45,0,*6A
1513947885.17,32393,7.5,73320.5,-10.77,-11.45,-11.45,0,*69
1513947886.42,32394,7.5,73310.3,-10.75,-11.45,-11.45,0,*6C
1513947887.67,32395,7.5,73290.5,-10.75,-11.45,-11.45,0,*6D
1513947888.93,32396,7.5,73282.0,-10.75,-11.55,-11.45,0,*6F
1513947890.2,32397,7.5,73300.8,-10.75,-11.55,-11.45,0,*6E
1513947891.47,32398,7.5,73308.8,-10.77,-11.59,-11.63,0,*6B
1513947892.73,32399,7.5,73332.0,-10.77,-11.59,-11.59,0,*63
1513947894.02,32400,7.5,73342.0,-10.75,-11.55,-11.59,0,*6A
1513947895.29,32401,7.5,73322.0,-10.77,-11.59,-11.59,0,*65
1513947896.56,32402,7.5,73300.3,-10.77,-11.63,-11.63,0,*66
1513947897.82,32403,7.5,73280.3,-10.77,-11.59,-11.59,0,*67
1513947899.09,32404,7.5,73278.8,-10.77,-11.63,-11.63,0,*60
1513947900.35,32405,7.5,73282.3,-10.77,-11.63,-11.63,0,*61
1513947901.65,32406,7.5,73296.5,-10.75,-11.55,-11.59,0,*6C
1513947902.92,32407,7.5,73296.3,-10.77,-11.63,-11.63,0,*63
1513947904.18,32408,7.5,73292.0,-10.77,-11.63,-11.59,0,*65
1513947905.45,32409,7.5,73300.8,-10.77,-11.59,-11.63,0,*64
1513947906.74,32410,7.5,73308.3,-10.75,-11.55,-11.55,0,*67
1513947908.0,32411,7.5,73312.3,-10.77,-11.55,-11.59,0,*68
1513947909.26,32412,7.5,73320.0,-10.77,-11.59,-11.59,0,*67
1513947910.53,32413,7.5,73318.8,-10.77,-11.63,-11.51,0,*67
1513947911.79,32414,7.5,73316.5,-10.77,-11.59,-11.63,0,*68
1513947913.06,32415,7.5,73332.5,-10.77,-11.59,-11.59,0,*60
1513947914.32,32416,7.5,73324.5,-10.77,-11.59,-11.59,0,*63
1513947915.58,32417,7.5,73316.8,-10.77,-11.59,-11.51,0,*6A
1513947916.84,32418,7.5,73314.0,-10.77,-11.63,-11.59,0,*64
1513947918.1,32419,7.5,73310.8,-10.77,-11.63,-11.59,0,*65
1513947919.37,32420,7.5,73306.3,-10.77,-11.63,-11.59,0,*6F
1513947920.63,32421,7.5,73292.8,-10.77,-11.59,-11.59,0,*67
1513947921.9,32422,7.5,73284.0,-10.77,-11.59,-11.63,0,*6D
1513947923.16,32423,7.5,73278.3,-10.77,-11.63,-11.63,0,*65
1513947924.43,32424,7.5,73268.3,-10.77,-11.59,-11.63,0,*6B
1513947925.7,32425,7.5,73274.3,-10.77,-11.63,-11.63,0,*63
1513947927.0,32426,7.5,73258.5,-10.75,-11.59,-11.63,0,*6B
1513947928.27,32427,7.5,73240.8,-10.77,-11.63,-11.63,0,*61
1513947929.53,32428,7.5,73220.8,-10.77,-11.63,-11.59,0,*67
1513947930.8,32429,7.5,73186.0,-10.77,-11.63,-11.63,0,*6F
1513947932.07,32430,7.5,73220.8,-10.77,-11.59,-11.63,0,*6E
1513947933.33,32431,7.5,73250.3,-10.77,-11.59,-11.59,0,*66
1513947934.59,32432,7.5,73256.8,-10.77,-11.63,-11.59,0,*6C
1513947935.85,32433,7.5,73238.3,-10.77,-11.59,-11.59,0,*64
1513947937.12,32434,7.5,73248.8,-10.77,-11.59,-11.59,0,*63
1513947938.38,32435,7.5,73260.5,-10.77,-11.59,-11.59,0,*62
1513947939.62,32436,7.5,73242.5,-10.77,-11.45,-11.59,0,*6C
1513947940.91,32437,7.5,73280.5,-10.79,-11.51,-11.51,0,*6E
1513947942.19,32438,7.5,73278.5,-10.79,-11.51,-11.51,0,*61
1513947943.45,32439,7.5,73272.5,-10.77,-11.51,-11.59,0,*66
1513947944.71,32440,7.5,73256.0,-10.77,-11.51,-11.59,0,*68
1513947945.98,32441,7.5,73254.3,-10.75,-11.59,-11.45,0,*6E
1513947947.24,32442,7.5,73262.8,-10.77,-11.63,-11.59,0,*6B
1513947948.53,32443,7.5,73248.0,-10.75,-11.59,-11.59,0,*61
1513947949.8,32444,7.5,73268.3,-10.77,-11.67,-11.63,0,*60
1513947951.07,32445,7.5,73278.0,-10.77,-11.67,-11.63,0,*61
1513947952.34,32446,7.5,73282.5,-10.77,-11.67,-11.63,0,*62
1513947953.63,32447,7.5,73294.0,-10.79,-11.67,-11.63,0,*6D
1513947954.9,32448,7.5,73276.8,-10.77,-11.67,-11.67,0,*68
1513947956.16,32449,7.5,73254.8,-10.77,-11.77,-11.67,0,*68
1513947957.45,32450,7.5,73252.0,-10.79,-11.67,-11.67,0,*6F
1513947958.75,32451,7.5,73238.3,-10.79,-11.67,-11.67,0,*6E
1513947960.04,32452,7.5,73234.0,-10.79,-11.67,-11.67,0,*6D
1513947961.33,32453,7.5,73244.0,-10.79,-11.77,-11.67,0,*6D
1513947962.63,32454,7.5,73202.5,-10.79,-11.67,-11.67,0,*6B
1513947963.92,32455,7.5,73174.8,-10.79,-11.67,-11.67,0,*6A
1513947965.21,32456,7.5,73202.0,-10.79,-11.67,-11.67,0,*69
1513947966.48,32457,7.5,73208.8,-10.81,-11.73,-11.73,0,*6F
1513947967.77,32458,7.5,73182.0,-10.79,-11.63,-11.67,0,*63
1513947969.07,32459,7.5,73200.0,-10.79,-11.67,-11.63,0,*62
1513947970.36,32460,7.5,73200.0,-10.79,-11.67,-11.63,0,*68
1513947971.66,32461,7.5,73210.0,-10.79,-11.63,-11.63,0,*6D
1513947972.94,32462,7.5,73230.8,-10.81,-11.63,-11.63,0,*69
1513947974.21,32463,7.5,73256.5,-10.81,-11.63,-11.63,0,*68
1513947975.5,32464,7.5,73260.3,-10.79,-11.59,-11.59,0,*68
1513947976.8,32465,7.5,73278.3,-10.79,-11.59,-11.63,0,*60
1513947978.07,32466,7.5,73264.8,-10.81,-11.67,-11.63,0,*69
1513947979.36,32467,7.5,73260.8,-10.79,-11.59,-11.59,0,*6B
1513947980.64,32468,7.5,73262.5,-10.81,-11.63,-11.67,0,*67
1513947981.93,32469,7.5,73278.3,-10.79,-11.63,-11.59,0,*6C
1513947983.2,32470,7.5,73254.5,-10.81,-11.67,-11.67,0,*6A
1513947984.5,32471,7.5,73258.5,-10.79,-11.63,-11.63,0,*6C
1513947985.79,32472,7.5,73268.8,-10.79,-11.67,-11.63,0,*6B
1513947987.09,32473,7.5,73252.3,-10.79,-11.67,-11.63,0,*6A
1513947988.39,32474,7.5,73268.0,-10.79,-11.67,-11.63,0,*6D
1513947989.68,32475,7.5,73272.5,-10.79,-11.67,-11.63,0,*6C
1513947990.95,32476,7.5,73256.8,-10.81,-11.73,-11.67,0,*69
1513947992.21,32477,7.5,73278.8,-10.81,-11.73,-11.67,0,*68
1513947993.48,32478,7.5,73278.5,-10.81,-11.73,-11.67,0,*67
1513947994.74,32479,7.5,73278.0,-10.81,-11.73,-11.73,0,*63
1513947996.04,32480,7.5,73292.3,-10.79,-11.67,-11.67,0,*62
1513947997.3,32481,7.5,73296.8,-10.81,-11.73,-11.73,0,*64
1513947998.56,32482,7.5,73290.8,-10.81,-11.73,-11.81,0,*6A
1513947999.82,32483,7.5,73270.0,-10.81,-11.81,-11.81,0,*66
1513948001.1,32484,7.5,73278.3,-10.79,-11.77,-11.77,0,*66
1513948002.36,32485,7.5,73274.8,-10.81,-11.81,-11.81,0,*60
1513948003.62,32486,7.5,73272.5,-10.81,-11.73,-11.81,0,*6E
1513948004.88,32487,7.5,73244.0,-10.81,-11.81,-11.81,0,*62
1513948006.17,32488,7.5,73252.0,-10.79,-11.77,-11.77,0,*6A
1513948007.43,32489,7.5,73248.8,-10.81,-11.81,-11.81,0,*6C
1513948008.69,32490,7.5,73234.3,-10.81,-11.85,-11.81,0,*60
1513948009.95,32491,7.5,73228.8,-10.81,-11.85,-11.81,0,*61
1513948011.21,32492,7.5,73244.5,-10.81,-11.81,-11.81,0,*66
1513948012.49,32493,7.5,73234.5,-10.83,-11.73,-11.81,0,*68
1513948013.78,32494,7.5,73254.3,-10.83,-11.81,-11.81,0,*62
1513948015.06,32495,7.5,73250.0,-10.83,-11.73,-11.81,0,*6E
1513948016.35,32496,7.5,73262.8,-10.83,-11.73,-11.73,0,*60
1513948017.63,32497,7.5,73274.8,-10.83,-11.73,-11.81,0,*6C
1513948018.92,32498,7.5,73288.3,-10.87,-11.77,-11.77,0,*6A
1513948020.2,32499,7.5,73296.5,-10.87,-11.77,-11.77,0,*6B
1513948021.49,32500,7.5,73300.3,-10.83,-11.73,-11.73,0,*6E
1513948022.78,32501,7.5,73314.3,-10.83,-11.73,-11.73,0,*6F
1513948024.07,32502,7.5,73306.0,-10.87,-11.67,-11.73,0,*6D
1513948025.36,32503,7.5,73304.0,-10.83,-11.63,-11.67,0,*69
1513948026.66,32504,7.5,73310.5,-10.83,-11.67,-11.67,0,*6A
1513948027.95,32505,7.5,73316.8,-10.87,-11.73,-11.73,0,*6F
1513948029.23,32506,7.5,73306.8,-10.87,-11.73,-11.73,0,*6C
1513948030.52,32507,7.5,73292.8,-10.87,-11.73,-11.73,0,*6D
1513948031.81,32508,7.5,73286.8,-10.83,-11.67,-11.67,0,*66
1513948033.1,32509,7.5,73282.8,-10.87,-11.73,-11.73,0,*63
1513948034.39,32510,7.5,73282.5,-10.87,-11.73,-11.73,0,*6B
1513948035.68,32511,7.5,73284.0,-10.83,-11.67,-11.67,0,*6E
1513948036.98,32512,7.5,73264.5,-10.83,-11.67,-11.67,0,*6D
1513948038.26,32513,7.5,73264.0,-10.87,-11.73,-11.73,0,*68
1513948039.55,32514,7.5,73280.3,-10.87,-11.77,-11.77,0,*6F
1513948040.84,32515,7.5,73286.8,-10.87,-11.85,-11.85,0,*6E
1513948042.13,32516,7.5,73286.0,-10.83,-11.73,-11.73,0,*69
1513948043.41,32517,7.5,73276.0,-10.83,-11.81,-11.73,0,*65
1513948044.7,32518,7.5,73290.8,-10.87,-11.77,-11.77,0,*63
1513948045.99,32519,7.5,73298.0,-10.87,-11.77,-11.77,0,*62
1513948047.28,32520,7.5,73306.8,-10.87,-11.77,-11.73,0,*6C
1513948048.57,32521,7.5,73300.5,-10.87,-11.77,-11.67,0,*68
1513948049.86,32522,7.5,73322.3,-10.83,-11.67,-11.67,0,*6E
1513948051.16,32523,7.5,73334.8,-10.87,-11.67,-11.73,0,*6E
1513948052.45,32524,7.5,73332.5,-10.87,-11.67,-11.73,0,*69
1513948053.74,32525,7.5,73320.8,-10.87,-11.67,-11.67,0,*6D
1513948055.04,32526,7.5,73342.8,-10.87,-11.67,-11.67,0,*6E
1513948056.33,32527,7.5,73344.0,-10.87,-11.67,-11.67,0,*6F
1513948057.63,32528,7.5,73344.5,-10.83,-11.63,-11.63,0,*64
1513948058.92,32529,7.5,73338.3,-10.87,-11.67,-11.67,0,*61
1513948060.21,32530,7.5,73336.8,-10.87,-11.67,-11.59,0,*64
1513948061.51,32531,7.5,73330.0,-10.87,-11.67,-11.59,0,*65
1513948062.8,32532,7.5,73326.0,-10.83,-11.63,-11.55,0,*6A
1513948064.1,32533,7.5,73338.0,-10.83,-11.55,-11.55,0,*6E
1513948065.39,32534,7.5,73318.5,-10.87,-11.67,-11.67,0,*6D
1513948066.69,32535,7.5,73318.3,-10.83,-11.63,-11.63,0,*68
1513948067.99,32536,7.5,73308.5,-10.83,-11.67,-11.63,0,*6F
1513948069.28,32537,7.5,73292.3,-10.87,-11.67,-11.63,0,*6A
1513948070.57,32538,7.5,73294.3,-10.87,-11.67,-11.73,0,*64
1513948071.87,32539,7.5,73306.8,-10.87,-11.67,-11.67,0,*60
1513948073.16,32540,7.5,73320.8,-10.87,-11.67,-11.73,0,*6B
1513948074.45,32541,7.5,73346.8,-10.87,-11.73,-11.63,0,*6E
1513948075.74,32542,7.5,73352.8,-10.87,-11.73,-11.67,0,*69
1513948077.03,32543,7.5,73350.8,-10.87,-11.73,-11.73,0,*6D
1513948078.33,32544,7.5,73350.0,-10.83,-11.67,-11.63,0,*6A
1513948079.62,32545,7.5,73324.3,-10.87,-11.73,-11.67,0,*6E
1513948080.91,32546,7.5,73334.5,-10.87,-11.73,-11.67,0,*6D
1513948082.2,32547,7.5,73342.8,-10.87,-11.67,-11.67,0,*69
1513948083.5,32548,7.5,73350.3,-10.83,-11.63,-11.67,0,*66
1513948084.79,32549,7.5,73326.8,-10.87,-11.67,-11.73,0,*62
1513948086.07,32550,7.5,73310.3,-10.87,-11.73,-11.73,0,*6F
1513948087.36,32551,7.5,73296.0,-10.87,-11.73,-11.73,0,*6E
1513948088.65,32552,7.5,73274.8,-10.87,-11.73,-11.73,0,*6D
1513948089.93,32553,7.5,73262.0,-10.87,-11.73,-11.73,0,*6C
1513948091.22,32554,7.5,73282.8,-10.87,-11.77,-11.73,0,*6F
1513948092.51,32555,7.5,73280.3,-10.87,-11.77,-11.85,0,*67
1513948093.77,32556,7.5,73282.3,-10.89,-11.77,-11.77,0,*67
1513948095.04,32557,7.5,73298.3,-10.89,-11.77,-11.77,0,*66
1513948096.3,32558,7.5,73290.5,-10.89,-11.77,-11.77,0,*69
1513948097.56,32559,7.5,73304.3,-10.89,-11.77,-11.77,0,*68
1513948098.82,32560,7.5,73310.3,-10.89,-11.77,-11.77,0,*62
1513948100.08,32561,7.5,73306.0,-10.89,-11.77,-11.77,0,*63
1513948101.34,32562,7.5,73304.5,-10.89,-11.77,-11.77,0,*60
1513948102.63,32563,7.5,73308.3,-10.91,-11.81,-11.89,0,*60
1513948103.9,32564,7.5,73316.0,-10.89,-11.77,-11.85,0,*6B
1513948105.16,32565,7.5,73312.3,-10.89,-11.77,-11.77,0,*67
1513948106.42,32566,7.5,73316.5,-10.89,-11.77,-11.77,0,*64
1513948107.7,32567,7.5,73316.0,-10.91,-11.81,-11.81,0,*6C
1513948108.96,32568,7.5,73306.0,-10.89,-11.85,-11.77,0,*67
1513948110.25,32569,7.5,73310.0,-10.91,-11.81,-11.81,0,*62
1513948111.51,32570,7.5,73306.8,-10.89,-11.77,-11.77,0,*63
1513948112.77,32571,7.5,73304.8,-10.89,-11.77,-11.77,0,*62
1513948114.03,32572,7.5,73304.3,-10.89,-11.77,-11.77,0,*61
1513948115.32,32573,7.5,73308.8,-10.91,-11.77,-11.81,0,*60
1513948116.6,32574,7.5,73284.5,-10.91,-11.77,-11.81,0,*67
1513948117.86,32575,7.5,73278.0,-10.89,-11.77,-11.81,0,*6F